TimeEDT,TemperatureF,Dew PointF,Humidity,Sea Level PressureIn,VisibilityMPH,Wind Direction,Wind SpeedMPH,Gust SpeedMPH,PrecipitationIn,Events,Conditions,WindDirDegrees,DateUTC
12:51 AM,44.1,37.0,76,29.98,10.0,SSW,6.9,-,N/A,,Partly Cloudy,200,2012-10-10 04:51:00
1:51 AM,44.1,37.9,79,29.96,10.0,South,6.9,-,N/A,,Partly Cloudy,180,2012-10-10 05:51:00
2:51 AM,42.1,37.9,85,29.96,10.0,South,6.9,-,N/A,,Partly Cloudy,170,2012-10-10 06:51:00
3:51 AM,43.0,39.0,86,29.94,10.0,South,5.8,-,N/A,,Scattered Clouds,180,2012-10-10 07:51:00
4:51 AM,42.1,39.0,89,29.92,10.0,South,8.1,-,N/A,,Mostly Cloudy,170,2012-10-10 08:51:00
5:51 AM,42.1,39.0,89,29.91,10.0,South,8.1,-,N/A,,Overcast,170,2012-10-10 09:51:00
6:51 AM,43.0,39.9,89,29.91,10.0,South,10.4,-,N/A,,Overcast,180,2012-10-10 10:51:00
7:51 AM,44.1,39.9,85,29.89,10.0,South,6.9,-,N/A,,Overcast,190,2012-10-10 11:51:00
8:51 AM,46.9,41.0,80,29.90,10.0,SSW,9.2,-,N/A,,Overcast,210,2012-10-10 12:51:00
9:26 AM,46.4,42.8,87,29.90,10.0,SW,12.7,18.4,0.00,Rain,Light Rain,220,2012-10-10 13:26:00
9:51 AM,46.4,42.8,87,29.90,10.0,SW,11.5,-,N/A,Rain,Light Rain,220,2012-10-10 13:51:00
10:25 AM,46.4,42.8,87,29.91,3.0,SW,9.2,-,0.00,Rain,Light Rain,230,2012-10-10 14:25:00
10:51 AM,46.0,43.0,89,29.93,4.0,SW,11.5,-,0.00,Rain,Light Rain,230,2012-10-10 14:51:00
11:20 AM,46.4,42.8,87,29.92,4.0,SW,9.2,-,0.00,,Overcast,220,2012-10-10 15:20:00
11:26 AM,46.4,42.8,87,29.92,1.0,SW,9.2,-,0.00,Rain,Light Rain,230,2012-10-10 15:26:00
11:51 AM,46.0,44.1,93,29.94,1.5,WSW,11.5,-,0.00,,Light Drizzle,250,2012-10-10 15:51:00
12:06 PM,46.4,44.6,93,29.93,7.0,West,10.4,-,0.01,,Overcast,260,2012-10-10 16:06:00
12:41 PM,48.2,42.8,82,29.94,10.0,West,15.0,20.7,0.01,,Overcast,270,2012-10-10 16:41:00
12:51 PM,51.1,44.1,77,29.96,10.0,West,12.7,-,0.01,,Overcast,270,2012-10-10 16:51:00
1:16 PM,51.8,41.0,67,29.94,10.0,West,13.8,20.7,N/A,,Mostly Cloudy,280,2012-10-10 17:16:00
1:51 PM,51.1,39.0,63,29.94,10.0,West,17.3,21.9,N/A,,Mostly Cloudy,260,2012-10-10 17:51:00
2:12 PM,53.6,35.6,51,29.92,10.0,West,20.7,34.5,N/A,,Mostly Cloudy,260,2012-10-10 18:12:00
2:51 PM,51.1,35.1,54,29.95,10.0,West,13.8,24.2,N/A,,Overcast,260,2012-10-10 18:51:00
3:51 PM,50.0,36.0,59,29.98,10.0,West,11.5,-,0.00,,Overcast,280,2012-10-10 19:51:00
4:51 PM,50.0,33.1,52,29.99,10.0,West,16.1,23.0,N/A,,Overcast,280,2012-10-10 20:51:00
5:51 PM,48.9,34.0,56,30.01,10.0,West,13.8,-,N/A,,Mostly Cloudy,260,2012-10-10 21:51:00
6:51 PM,46.9,34.0,61,30.01,10.0,WSW,11.5,-,N/A,,Mostly Cloudy,250,2012-10-10 22:51:00
7:51 PM,46.9,32.0,56,30.06,10.0,West,10.4,-,N/A,,Mostly Cloudy,270,2012-10-10 23:51:00
8:51 PM,46.0,30.9,56,30.09,10.0,West,16.1,27.6,N/A,,Mostly Cloudy,270,2012-10-11 00:51:00
9:51 PM,45.0,28.0,52,30.13,10.0,West,11.5,23.0,N/A,,Overcast,280,2012-10-11 01:51:00
10:51 PM,44.1,28.0,53,30.15,10.0,West,12.7,23.0,N/A,,Overcast,260,2012-10-11 02:51:00
11:51 PM,43.0,28.0,56,30.17,10.0,West,10.4,-,N/A,,Overcast,270,2012-10-11 03:51:00